1512842401.1,32644,4.0,71812.5,-16.45,-26.17,-27.51,0,*62
1512842402.34,32645,4.0,71810.5,-16.45,-26.17,-27.55,0,*67
1512842403.59,32646,4.0,71810.8,-16.45,-26.17,-27.55,0,*64
1512842404.85,32647,4.0,71808.0,-16.45,-26.17,-27.45,0,*64
1512842406.09,32648,4.0,71808.0,-16.45,-26.29,-27.51,0,*63
1512842407.34,32649,4.0,71810.8,-16.49,-26.33,-27.55,0,*61
1512842408.59,32650,4.0,71808.8,-16.45,-26.17,-27.55,0,*63
1512842409.86,32651,4.0,71810.3,-16.49,-26.29,-27.61,0,*64
1512842411.13,32652,4.0,71812.0,-16.43,-26.29,-27.51,0,*6E
1512842412.34,32653,4.0,71806.8,-16.49,-26.23,-27.55,0,*6B
1512842413.59,32654,4.0,71810.5,-16.45,-26.33,-27.55,0,*61
1512842414.8,32655,4.0,71812.8,-16.45,-26.45,-27.55,0,*61
1512842416.05,32656,4.0,71810.0,-16.45,-26.33,-27.51,0,*67
1512842417.26,32657,4.0,71808.8,-16.49,-26.23,-27.55,0,*6F
1512842418.51,32658,4.0,71808.5,-16.49,-26.29,-27.55,0,*6A
1512842419.75,32659,4.0,71804.5,-16.49,-26.39,-27.61,0,*6D
1512842420.98,32660,4.0,71808.0,-16.49,-26.39,-27.55,0,*60
1512842422.22,32661,4.0,71808.0,-16.49,-26.39,-27.61,0,*66
1512842423.47,32662,4.0,71806.3,-16.49,-26.49,-27.61,0,*62
1512842424.69,32663,4.0,71806.3,-16.45,-26.45,-27.55,0,*64
1512842425.91,32664,4.0,71808.5,-16.49,-26.39,-27.55,0,*64
1512842427.12,32665,4.0,71808.3,-16.45,-26.45,-27.55,0,*62
1512842428.34,32666,4.0,71806.5,-16.49,-26.49,-27.71,0,*67
1512842429.59,32667,4.0,71808.3,-16.49,-26.39,-27.61,0,*60
1512842430.84,32668,4.0,71804.5,-16.49,-26.39,-27.61,0,*6F
1512842432.08,32669,4.0,71812.0,-16.49,-26.55,-27.71,0,*65
1512842433.33,32670,4.0,71810.8,-16.51,-26.49,-27.71,0,*69
1512842434.58,32671,4.0,71808.0,-16.49,-26.61,-27.61,0,*6A
1512842435.84,32672,4.0,71810.0,-16.49,-26.55,-27.61,0,*6E
1512842437.09,32673,4.0,71810.0,-16.51,-26.39,-27.55,0,*6B
1512842438.31,32674,4.0,71810.3,-16.49,-26.61,-27.71,0,*6E
1512842439.61,32675,4.0,71812.3,-16.51,-26.71,-27.61,0,*66
1512842440.9,32676,4.0,71812.0,-16.51,-26.55,-27.61,0,*63
1512842442.17,32677,4.0,71810.8,-16.51,-26.55,-27.71,0,*63
1512842443.42,32678,4.0,71808.5,-16.51,-26.61,-27.71,0,*6B
1512842444.66,32679,4.0,71810.8,-16.53,-26.65,-27.67,0,*6B
1512842445.91,32680,4.0,71810.5,-16.51,-26.61,-27.77,0,*6A
1512842447.2,32681,4.0,71806.0,-16.51,-26.71,-27.61,0,*6D
1512842448.44,32682,4.0,71808.8,-16.53,-26.61,-27.67,0,*6B
1512842449.66,32683,4.0,71804.5,-16.49,-26.49,-27.55,0,*6A
1512842450.93,32684,4.0,71806.8,-16.51,-26.61,-27.61,0,*69
1512842452.18,32685,4.0,71806.0,-16.51,-26.49,-27.51,0,*61
1512842453.43,32686,4.0,71804.8,-16.53,-26.65,-27.67,0,*6B
1512842454.68,32687,4.0,71806.5,-16.51,-26.61,-27.71,0,*6B
1512842455.92,32688,4.0,71808.8,-16.51,-26.61,-27.71,0,*64
1512842457.19,32689,4.0,71806.3,-16.51,-26.71,-27.71,0,*64
1512842458.49,32690,4.0,71804.8,-16.51,-26.55,-27.61,0,*6B
1512842459.78,32691,4.0,71806.5,-16.51,-26.55,-27.61,0,*6A
1512842461.03,32692,4.0,71804.5,-16.51,-26.61,-27.55,0,*69
1512842462.27,32693,4.0,71804.0,-16.53,-26.61,-27.67,0,*6B
1512842463.54,32694,4.0,71804.5,-16.51,-26.61,-27.61,0,*68
1512842464.78,32695,4.0,71806.8,-16.53,-26.65,-27.67,0,*69
1512842466.05,32696,4.0,71808.5,-16.53,-26.61,-27.61,0,*68
1512842467.29,32697,4.0,71806.3,-16.51,-26.61,-27.55,0,*6C
1512842468.53,32698,4.0,71804.5,-16.53,-26.61,-27.67,0,*60
1512842469.8,32699,4.0,71800.8,-16.51,-26.71,-27.71,0,*65
1512842471.08,32700,4.0,71800.8,-16.51,-26.77,-27.71,0,*62
1512842472.35,32701,4.0,71802.8,-16.51,-26.71,-27.71,0,*65
1512842473.65,32702,4.0,71800.8,-16.51,-26.77,-27.61,0,*61
1512842474.92,32703,4.0,71806.8,-16.53,-26.77,-27.67,0,*64
1512842476.2,32704,4.0,71810.0,-16.51,-26.77,-27.89,0,*61
1512842477.47,32705,4.0,71800.3,-16.53,-26.81,-27.67,0,*6B
1512842478.73,32706,4.0,71804.3,-16.53,-26.77,-27.77,0,*60
1512842480.02,32707,4.0,71806.3,-16.53,-26.77,-27.83,0,*6A
1512842481.29,32708,4.0,71804.8,-16.51,-26.77,-27.77,0,*6C
1512842482.58,32709,4.0,71802.8,-16.53,-26.81,-27.83,0,*6D
1512842483.85,32710,4.0,71806.5,-16.53,-26.77,-27.67,0,*66
1512842485.12,32711,4.0,71802.5,-16.51,-26.71,-27.71,0,*64
1512842486.41,32712,4.0,71804.5,-16.53,-26.77,-27.83,0,*6E
1512842487.7,32713,4.0,71806.3,-16.53,-26.77,-27.83,0,*6F
1512842488.95,32714,4.0,71804.5,-16.53,-26.65,-27.67,0,*61
1512842490.17,32715,4.0,71800.0,-16.55,-26.65,-27.67,0,*66
1512842491.42,32716,4.0,71796.0,-16.55,-26.81,-27.67,0,*6F
1512842492.71,32717,4.0,71800.5,-16.53,-26.81,-27.83,0,*62
1512842493.98,32718,4.0,71802.3,-16.53,-26.81,-27.67,0,*67
1512842495.24,32719,4.0,71802.5,-16.53,-26.77,-27.67,0,*6F
1512842496.49,32720,4.0,71802.3,-16.55,-26.81,-27.67,0,*6A
1512842497.73,32721,4.0,71802.8,-16.53,-26.65,-27.77,0,*66
1512842498.99,32722,4.0,71798.8,-16.53,-26.77,-27.77,0,*66
1512842500.24,32723,4.0,71802.5,-16.53,-26.65,-27.67,0,*65
1512842501.48,32724,4.0,71800.3,-16.53,-26.61,-27.67,0,*66
1512842502.7,32725,4.0,71802.5,-16.55,-26.65,-27.67,0,*65
1512842503.92,32726,4.0,71802.5,-16.55,-26.65,-27.67,0,*66
1512842505.16,32727,4.0,71804.5,-16.55,-26.61,-27.61,0,*65
1512842506.37,32728,4.0,71804.5,-16.55,-26.61,-27.55,0,*6D
1512842507.64,32729,4.0,71804.0,-16.57,-26.61,-27.61,0,*69
1512842508.86,32730,4.0,71806.8,-16.55,-26.65,-27.67,0,*61
1512842510.12,32731,4.0,71806.5,-16.57,-26.55,-27.55,0,*60
1512842511.33,32732,4.0,71804.3,-16.55,-26.61,-27.67,0,*67
1512842512.6,32733,4.0,71806.3,-16.55,-26.55,-27.61,0,*67
1512842513.84,32734,4.0,71802.8,-16.55,-26.61,-27.61,0,*67
1512842515.11,32735,4.0,71802.8,-16.57,-26.65,-27.61,0,*60
1512842516.33,32736,4.0,71802.0,-16.55,-26.65,-27.67,0,*67
1512842517.57,32737,4.0,71800.3,-16.55,-26.61,-27.61,0,*64
1512842518.81,32738,4.0,71806.5,-16.53,-26.65,-27.67,0,*6F
1512842520.07,32739,4.0,71804.0,-16.53,-26.55,-27.55,0,*6C
1512842521.34,32740,4.0,71802.0,-16.53,-26.65,-27.61,0,*66
1512842522.56,32741,4.0,71800.3,-16.55,-26.65,-27.67,0,*67
1512842523.78,32742,4.0,71800.8,-16.55,-26.65,-27.55,0,*65
1512842525.02,32743,4.0,71800.5,-16.53,-26.65,-27.77,0,*62
1512842526.26,32744,4.0,71800.5,-16.53,-26.65,-27.67,0,*64
1512842527.48,32745,4.0,71800.8,-16.55,-26.65,-27.67,0,*63
1512842528.7,32746,4.0,71802.3,-16.55,-26.65,-27.77,0,*61
1512842529.92,32747,4.0,71802.5,-16.55,-26.61,-27.67,0,*65
1512842531.16,32748,4.0,71800.8,-16.53,-26.65,-27.67,0,*68
1512842532.41,32749,4.0,71806.5,-16.53,-26.65,-27.67,0,*69
1512842533.67,32750,4.0,71800.3,-16.53,-26.61,-27.61,0,*63
1512842534.91,32751,4.0,71802.8,-16.57,-26.61,-27.67,0,*60
1512842536.13,32752,4.0,71800.3,-16.55,-26.65,-27.77,0,*64
1512842537.37,32753,4.0,71802.3,-16.57,-26.65,-27.67,0,*66
1512842538.59,32754,4.0,71804.0,-16.55,-26.61,-27.67,0,*67
1512842539.81,32755,4.0,71804.0,-16.55,-26.65,-27.77,0,*63
1512842541.05,32756,4.0,71806.3,-16.55,-26.77,-27.67,0,*62
1512842542.27,32757,4.0,71804.0,-16.55,-26.61,-27.67,0,*64
1512842543.51,32758,4.0,71800.8,-16.57,-26.65,-27.77,0,*6C
1512842544.73,32759,4.0,71798.5,-16.55,-26.65,-27.67,0,*6E
1512842545.98,32760,4.0,71802.8,-16.57,-26.65,-27.67,0,*66
1512842547.23,32761,4.0,71802.3,-16.55,-26.77,-27.67,0,*66
1512842548.44,32762,4.0,71808.0,-16.55,-26.65,-27.77,0,*67
1512842549.69,32763,4.0,71804.3,-16.57,-26.65,-27.77,0,*64
1512842550.93,32764,4.0,71802.3,-16.57,-26.65,-27.77,0,*63
1512842552.14,32765,4.0,71808.3,-16.55,-26.65,-27.77,0,*60
1512842553.39,32766,4.0,71806.8,-16.57,-26.65,-27.77,0,*61
1512842554.6,32767,4.0,71804.0,-16.55,-26.65,-27.77,0,*62
1512842555.85,32768,4.0,71802.0,-16.57,-26.65,-27.67,0,*6E
1512842557.1,32769,4.0,71806.3,-16.57,-26.65,-27.77,0,*6E
1512842558.34,32770,4.0,71804.5,-16.57,-26.61,-27.67,0,*63
1512842559.59,32771,4.0,71804.0,-16.57,-26.65,-27.67,0,*66
1512842560.8,32772,4.0,71806.8,-16.55,-26.65,-27.77,0,*66
1512842562.05,32773,4.0,71806.0,-16.57,-26.61,-27.67,0,*60
1512842563.29,32774,4.0,71804.8,-16.57,-26.65,-27.77,0,*62
1512842564.52,32775,4.0,71804.3,-16.57,-26.61,-27.77,0,*67
1512842565.81,32776,4.0,71806.3,-16.57,-26.55,-27.61,0,*64
1512842567.06,32777,4.0,71806.3,-16.57,-26.61,-27.67,0,*64
1512842568.3,32778,4.0,71806.5,-16.57,-26.61,-27.67,0,*6B
1512842569.52,32779,4.0,71810.8,-16.55,-26.65,-27.67,0,*6C
1512842570.73,32780,4.0,71808.0,-16.55,-26.65,-27.77,0,*6B
1512842572.0,32781,4.0,71806.5,-16.55,-26.55,-27.61,0,*6E
1512842573.24,32782,4.0,71804.8,-16.55,-26.61,-27.61,0,*6A
1512842574.48,32783,4.0,71804.8,-16.57,-26.65,-27.77,0,*6A
1512842575.72,32784,4.0,71808.0,-16.57,-26.61,-27.67,0,*68
1512842576.96,32785,4.0,71808.3,-16.57,-26.65,-27.77,0,*6C
1512842578.2,32786,4.0,71810.5,-16.57,-26.61,-27.77,0,*6B
1512842579.45,32787,4.0,71806.5,-16.57,-26.65,-27.67,0,*6F
1512842580.71,32788,4.0,71806.8,-16.57,-26.61,-27.83,0,*6E
1512842581.98,32789,4.0,71810.5,-16.57,-26.65,-27.83,0,*6B
1512842583.23,32790,4.0,71806.0,-16.57,-26.65,-27.77,0,*68
1512842584.44,32791,4.0,71806.3,-16.55,-26.61,-27.77,0,*6F
1512842585.67,32792,4.0,71808.5,-16.57,-26.61,-27.77,0,*6E
1512842586.88,32793,4.0,71806.5,-16.55,-26.61,-27.77,0,*6D
1512842588.13,32794,4.0,71806.5,-16.57,-26.61,-27.67,0,*69
1512842589.37,32795,4.0,71806.3,-16.57,-26.65,-27.67,0,*6C
1512842590.62,32796,4.0,71804.3,-16.57,-26.65,-27.67,0,*6F
1512842591.86,32797,4.0,71806.5,-16.57,-26.61,-27.77,0,*6B
1512842593.1,32798,4.0,71804.0,-16.57,-26.61,-27.77,0,*64
1512842594.33,32799,4.0,71808.0,-16.57,-26.61,-27.77,0,*65
1512842595.6,32800,4.0,71808.8,-16.57,-26.61,-27.83,0,*61
1512842596.86,32801,4.0,71810.3,-16.57,-26.61,-27.83,0,*60
1512842598.1,32802,4.0,71806.3,-16.57,-26.61,-27.77,0,*68
1512842599.36,32803,4.0,71806.8,-16.59,-26.71,-27.83,0,*6D
1512842600.58,32804,4.0,71808.3,-16.59,-26.65,-27.89,0,*65
1512842601.83,32805,4.0,71804.3,-16.59,-26.81,-27.89,0,*6E
1512842603.1,32806,4.0,71806.8,-16.59,-26.71,-27.99,0,*63
1512842604.34,32807,4.0,71810.0,-16.59,-26.71,-27.89,0,*63
1512842605.58,32808,4.0,71802.3,-16.59,-26.71,-27.89,0,*6C
1512842606.82,32809,4.0,71800.8,-16.59,-26.71,-27.89,0,*6D
1512842608.06,32810,4.0,71802.5,-16.59,-26.71,-27.89,0,*65
1512842609.33,32811,4.0,71806.8,-16.57,-26.65,-27.83,0,*65
1512842610.57,32812,4.0,71802.3,-16.57,-26.65,-27.77,0,*6D
1512842611.83,32813,4.0,71802.0,-16.59,-26.71,-27.83,0,*6C
1512842613.05,32814,4.0,71804.5,-16.59,-26.65,-27.89,0,*64
1512842614.3,32815,4.0,71804.5,-16.59,-26.65,-27.83,0,*6F
1512842615.59,32816,4.0,71802.3,-16.61,-26.71,-27.83,0,*62
1512842616.85,32817,4.0,71800.8,-16.59,-26.71,-27.83,0,*68
1512842618.07,32818,4.0,71802.8,-16.59,-26.65,-27.71,0,*6F
1512842619.32,32819,4.0,71800.5,-16.59,-26.65,-27.83,0,*63
1512842620.56,32820,4.0,71802.5,-16.59,-26.61,-27.83,0,*6D
1512842621.82,32821,4.0,71802.3,-16.59,-26.71,-27.83,0,*6D
1512842623.07,32822,4.0,71802.5,-16.59,-26.65,-27.83,0,*6B
1512842624.31,32823,4.0,71804.3,-16.59,-26.65,-27.83,0,*6A
1512842625.54,32824,4.0,71806.8,-16.59,-26.65,-27.89,0,*67
1512842626.75,32825,4.0,71800.8,-16.59,-26.61,-27.71,0,*65
1512842627.97,32826,4.0,71804.3,-16.59,-26.65,-27.71,0,*62
1512842629.19,32827,4.0,71800.8,-16.59,-26.65,-27.71,0,*63
1512842630.43,32828,4.0,71802.0,-16.59,-26.71,-27.89,0,*6E
1512842631.7,32829,4.0,71802.5,-16.61,-26.71,-27.89,0,*64
1512842632.94,32830,4.0,71804.8,-16.59,-26.71,-27.89,0,*67
1512842634.18,32831,4.0,71802.8,-16.61,-26.65,-27.89,0,*68
1512842635.47,32832,4.0,71804.8,-16.61,-26.71,-27.99,0,*6F
1512842636.74,32833,4.0,71804.5,-16.61,-26.87,-27.99,0,*67
1512842637.98,32834,4.0,71806.3,-16.61,-26.65,-27.89,0,*6D
1512842639.22,32835,4.0,71804.8,-16.59,-26.71,-27.89,0,*62
1512842640.46,32836,4.0,71802.0,-16.59,-26.71,-27.89,0,*61
1512842641.68,32837,4.0,71804.5,-16.59,-26.65,-27.89,0,*65
1512842642.96,32838,4.0,71806.8,-16.59,-26.81,-28.05,0,*6B
1512842644.2,32839,4.0,71806.3,-16.59,-26.71,-27.89,0,*6E
1512842645.47,32840,4.0,71802.5,-16.61,-26.81,-27.89,0,*64
1512842646.74,32841,4.0,71804.0,-16.61,-26.81,-27.89,0,*65
1512842648.01,32842,4.0,71800.3,-16.61,-26.81,-27.89,0,*66
1512842649.27,32843,4.0,71804.8,-16.61,-26.71,-27.89,0,*68
1512842650.54,32844,4.0,71802.3,-16.61,-26.81,-27.89,0,*60
1512842651.78,32845,4.0,71802.0,-16.59,-26.87,-27.99,0,*6D
1512842653.03,32846,3.94,71800.0,-16.59,-26.71,-27.89,0,*66
1512842654.27,32847,4.0,71804.5,-16.61,-26.65,-27.89,0,*69
1512842655.53,32848,4.0,71802.5,-16.61,-26.71,-27.89,0,*63
1512842656.8,32849,4.0,71802.5,-16.61,-26.65,-27.83,0,*6D
1512842658.07,32850,4.0,71798.8,-16.61,-26.81,-27.89,0,*65
1512842659.34,32851,4.0,71796.3,-16.61,-26.87,-27.99,0,*63
1512842660.58,32852,4.0,71802.3,-16.59,-26.87,-27.99,0,*6B
1512842661.84,32853,4.0,71796.5,-16.59,-26.71,-27.83,0,*68
1512842663.08,32854,4.0,71798.3,-16.59,-26.87,-27.99,0,*6D
1512842664.34,32855,4.0,71800.8,-16.61,-26.87,-27.99,0,*67
1512842665.61,32856,4.0,71800.8,-16.61,-26.87,-27.99,0,*64
1512842666.87,32857,4.0,71802.3,-16.61,-26.87,-27.99,0,*65
1512842668.15,32858,4.0,71798.0,-16.59,-26.81,-27.99,0,*67
1512842669.41,32859,4.0,71796.5,-16.61,-26.87,-27.99,0,*6B
1512842670.68,32860,4.0,71798.5,-16.59,-26.81,-27.99,0,*6C
1512842671.98,32861,4.0,71798.8,-16.61,-26.81,-27.99,0,*66
1512842673.26,32862,4.0,71800.8,-16.59,-26.81,-28.05,0,*64
1512842674.5,32863,4.0,71800.3,-16.59,-26.87,-28.05,0,*63
1512842675.76,32864,4.0,71804.5,-16.61,-27.03,-28.05,0,*62
1512842677.04,32865,4.0,71802.5,-16.61,-26.97,-28.15,0,*6E
1512842678.31,32866,4.0,71802.0,-16.61,-27.03,-27.99,0,*6A
1512842679.58,32867,4.0,71802.3,-16.59,-26.97,-27.99,0,*6C
1512842680.82,32868,4.0,71802.3,-16.61,-27.03,-28.15,0,*6F
1512842682.12,32869,4.0,71802.0,-16.61,-26.97,-27.99,0,*69
1512842683.37,32870,4.0,71798.3,-16.61,-27.03,-28.15,0,*66
1512842684.61,32871,4.0,71802.8,-16.61,-27.03,-28.15,0,*67
1512842685.88,32872,4.0,71802.0,-16.61,-27.03,-28.05,0,*65
1512842687.14,32873,4.0,71802.0,-16.61,-26.87,-28.05,0,*69
1512842688.41,32874,4.0,71800.8,-16.61,-27.03,-28.05,0,*63
1512842689.68,32875,4.0,71800.3,-16.61,-27.03,-28.05,0,*62
1512842690.94,32876,4.0,71798.8,-16.61,-27.03,-27.99,0,*6B
1512842692.24,32877,4.0,71804.8,-16.61,-26.97,-28.05,0,*6C
1512842693.54,32878,4.0,71800.8,-16.61,-26.97,-27.99,0,*69
1512842694.84,32879,3.94,71796.0,-16.61,-26.97,-27.99,0,*68
1512842696.14,32880,4.0,71800.0,-16.61,-26.97,-28.05,0,*64
1512842697.4,32881,4.0,71800.3,-16.61,-27.03,-28.05,0,*69
1512842698.65,32882,4.0,71802.8,-16.61,-27.03,-28.15,0,*6B
1512842699.91,32883,4.0,71800.3,-16.61,-27.03,-28.05,0,*6B
1512842701.21,32884,4.0,71802.3,-16.61,-26.97,-28.05,0,*60
1512842702.48,32885,4.0,71800.0,-16.61,-27.03,-27.99,0,*67
1512842703.78,32886,3.94,71798.8,-16.61,-26.97,-28.05,0,*62
1512842705.05,32887,3.94,71798.8,-16.61,-26.97,-28.15,0,*62
1512842706.32,32888,4.0,71802.3,-16.61,-27.03,-27.99,0,*6A
1512842707.57,32889,4.0,71800.8,-16.63,-27.07,-28.05,0,*67
1512842708.83,32890,4.0,71802.8,-16.65,-27.07,-28.05,0,*69
1512842710.07,32891,4.0,71800.3,-16.63,-27.07,-28.09,0,*62
1512842711.32,32892,4.0,71802.5,-16.63,-27.07,-28.09,0,*61
1512842712.56,32893,4.0,71802.3,-16.63,-27.07,-28.09,0,*60
1512842713.82,32894,4.0,71802.3,-16.65,-27.03,-28.09,0,*65
1512842715.06,32895,3.94,71798.8,-16.63,-27.03,-28.21,0,*68
1512842716.31,32896,4.0,71802.5,-16.63,-27.07,-28.21,0,*6F
1512842717.57,32897,4.0,71800.8,-16.65,-27.07,-28.09,0,*62
1512842718.84,32898,4.0,71802.8,-16.65,-27.07,-28.09,0,*6D
1512842720.1,32899,4.0,71800.3,-16.63,-27.23,-28.09,0,*6C
1512842721.36,32900,4.0,71802.5,-16.63,-27.19,-28.09,0,*64
1512842722.6,32901,4.0,71798.5,-16.63,-27.07,-28.21,0,*60
1512842723.87,32902,4.0,71798.3,-16.65,-27.07,-28.21,0,*65
1512842725.14,32903,4.0,71796.8,-16.65,-27.07,-28.21,0,*64
1512842726.41,32904,4.0,71796.0,-16.65,-27.07,-28.21,0,*63
1512842727.67,32905,4.0,71796.5,-16.63,-27.19,-28.21,0,*6B
1512842728.93,32906,4.0,71800.8,-16.65,-27.07,-28.09,0,*6B
1512842730.18,32907,4.0,71800.8,-16.63,-27.07,-28.21,0,*66
1512842731.46,32908,4.0,71798.8,-16.65,-27.19,-28.21,0,*60
1512842732.74,32909,4.0,71798.8,-16.65,-27.19,-28.09,0,*6B
1512842734.03,32910,4.0,71800.8,-16.65,-27.19,-28.21,0,*69
1512842735.31,32911,4.0,71798.8,-16.65,-27.19,-28.21,0,*68
1512842736.6,32912,4.0,71800.0,-16.65,-27.23,-28.21,0,*62
1512842737.89,32913,3.94,71800.3,-16.65,-27.23,-28.09,0,*69
1512842739.18,32914,4.0,71802.3,-16.65,-27.23,-28.21,0,*64
1512842740.46,32915,4.0,71798.5,-16.65,-27.19,-28.21,0,*6C
1512842741.75,32916,4.0,71796.0,-16.65,-27.23,-28.21,0,*66
1512842743.04,32917,3.94,71794.3,-16.65,-27.23,-28.21,0,*67
1512842744.33,32918,4.0,71794.3,-16.65,-27.19,-28.21,0,*61
1512842745.61,32919,4.0,71798.3,-16.65,-27.19,-28.21,0,*60
1512842746.87,32920,3.94,71794.3,-16.65,-27.07,-28.09,0,*6F
1512842748.16,32921,3.94,71792.8,-16.65,-27.19,-28.05,0,*6D
1512842749.44,32922,4.0,71792.3,-16.65,-27.19,-28.21,0,*68
1512842750.73,32923,4.0,71798.5,-16.65,-27.23,-28.21,0,*60
1512842752.02,32924,4.0,71796.3,-16.65,-27.19,-28.21,0,*6E
1512842753.3,32925,4.0,71796.0,-16.65,-27.19,-28.21,0,*6F
1512842754.58,32926,4.0,71798.3,-16.65,-27.19,-28.21,0,*6C
1512842755.87,32927,4.0,71798.3,-16.65,-27.23,-28.09,0,*6E
1512842757.11,32928,4.0,71796.5,-16.67,-27.23,-28.15,0,*6E
1512842758.36,32929,3.94,71794.0,-16.67,-27.23,-28.15,0,*6F
1512842759.63,32930,4.0,71798.5,-16.67,-27.23,-28.25,0,*64
1512842760.88,32931,4.0,71796.0,-16.67,-27.29,-28.25,0,*6F
1512842762.15,32932,4.0,71792.8,-16.67,-27.23,-28.25,0,*66
1512842763.39,32933,4.0,71794.5,-16.67,-27.23,-28.15,0,*64
1512842764.64,32934,4.0,71798.0,-16.67,-27.23,-28.15,0,*63
1512842765.89,32935,3.94,71796.8,-16.69,-27.29,-28.15,0,*66
1512842767.13,32936,4.0,71796.0,-16.67,-27.23,-28.15,0,*61
1512842768.4,32937,4.0,71798.5,-16.67,-27.23,-28.25,0,*63
1512842769.63,32938,4.0,71798.5,-16.67,-27.29,-28.15,0,*65
1512842770.87,32939,3.94,71794.8,-16.67,-27.23,-28.15,0,*6E
1512842772.14,32940,4.0,71796.8,-16.69,-27.29,-28.25,0,*67
1512842773.39,32941,4.0,71798.8,-16.67,-27.23,-28.15,0,*61
1512842774.68,32942,4.0,71794.8,-16.69,-27.23,-28.25,0,*6F
1512842775.91,32943,4.0,71798.5,-16.67,-27.29,-28.15,0,*69
1512842777.18,32944,4.0,71798.0,-16.69,-27.29,-28.25,0,*63
1512842778.42,32945,4.0,71798.8,-16.67,-27.23,-28.15,0,*65
1512842779.67,32946,4.0,71798.0,-16.67,-27.29,-28.25,0,*6F
1512842780.96,32947,3.94,71792.0,-16.69,-27.23,-28.09,0,*64
1512842782.21,32948,4.0,71794.3,-16.67,-27.23,-28.15,0,*68
1512842783.47,32949,4.0,71796.3,-16.69,-27.23,-28.15,0,*67
1512842784.72,32950,4.0,71798.5,-16.67,-27.23,-28.15,0,*61
1512842785.96,32951,4.0,71794.3,-16.67,-27.23,-28.15,0,*60
1512842787.21,32952,3.94,71794.8,-16.67,-27.23,-28.15,0,*63
1512842788.47,32953,4.0,71796.8,-16.67,-27.23,-28.09,0,*6F
1512842789.76,32954,4.0,71796.3,-16.69,-27.23,-28.09,0,*66
1512842791.03,32955,4.0,71798.3,-16.69,-27.23,-28.15,0,*6A
1512842792.3,32956,3.94,71794.0,-16.69,-27.23,-28.15,0,*69
1512842793.54,32957,4.0,71798.3,-16.69,-27.13,-28.15,0,*6B
1512842794.78,32958,4.0,71798.0,-16.69,-27.13,-28.15,0,*64
1512842796.05,32959,4.0,71796.3,-16.69,-27.13,-28.09,0,*68
1512842797.31,32960,4.0,71796.5,-16.69,-27.13,-28.09,0,*62
1512842798.55,32961,4.0,71796.3,-16.67,-27.13,-28.09,0,*6D
1512842799.79,32962,4.0,71796.0,-16.67,-27.13,-27.99,0,*68
1512842801.06,32963,4.0,71800.8,-16.69,-27.13,-28.09,0,*61
1512842802.32,32964,4.0,71798.8,-16.69,-27.13,-28.09,0,*66
1512842803.56,32965,3.94,71796.3,-16.69,-27.13,-28.15,0,*6A
1512842804.82,32966,4.0,71798.5,-16.69,-27.13,-28.09,0,*64
1512842806.09,32967,3.94,71800.3,-16.69,-27.13,-28.09,0,*65
1512842807.35,32968,4.0,71800.0,-16.69,-27.13,-27.99,0,*6C
1512842808.62,32969,4.0,71802.0,-16.69,-27.13,-28.09,0,*6B
1512842809.86,32970,4.0,71798.0,-16.67,-27.13,-28.09,0,*6D
1512842811.1,32971,4.0,71800.8,-16.67,-27.13,-27.99,0,*6A
1512842812.34,32972,4.0,71796.3,-16.67,-27.13,-28.09,0,*6F
1512842813.58,32973,3.94,71798.0,-16.67,-27.13,-28.09,0,*6E
1512842814.84,32974,4.0,71798.8,-16.69,-27.13,-27.99,0,*61
1512842816.09,32975,4.0,71798.3,-16.67,-27.07,-28.09,0,*6D
1512842817.36,32976,3.94,71796.5,-16.69,-27.23,-28.15,0,*6B
1512842818.6,32977,3.94,71802.0,-16.69,-27.13,-28.15,0,*69
1512842819.87,32978,3.94,71796.8,-16.69,-27.07,-27.83,0,*63
1512842821.13,32979,4.0,71800.0,-16.69,-27.13,-27.99,0,*6C
1512842822.4,32980,4.0,71796.3,-16.69,-27.07,-27.99,0,*6F
1512842823.65,32981,4.0,71802.3,-16.67,-27.07,-27.99,0,*60
1512842824.91,32982,4.0,71802.0,-16.69,-27.13,-28.09,0,*6E
1512842826.18,32983,4.0,71798.8,-16.69,-27.07,-27.99,0,*6C
1512842827.42,32984,4.0,71796.8,-16.69,-27.07,-27.93,0,*61
1512842828.69,32985,3.94,71792.3,-16.69,-27.07,-27.83,0,*61
1512842829.98,32986,4.0,71796.0,-16.69,-26.97,-27.83,0,*6A
1512842831.25,32987,4.0,71802.0,-16.69,-26.97,-27.93,0,*6A
1512842832.52,32988,4.0,71798.0,-16.67,-26.97,-27.83,0,*6A
1512842833.76,32989,4.0,71798.8,-16.69,-27.07,-27.93,0,*6C
1512842835.04,32990,4.0,71796.3,-16.69,-27.07,-27.99,0,*6E
1512842836.31,32991,4.0,71798.0,-16.69,-27.07,-27.99,0,*6F
1512842837.58,32992,4.0,71798.3,-16.69,-27.07,-27.99,0,*6C
1512842838.82,32993,4.0,71800.5,-16.69,-27.07,-27.93,0,*67
1512842840.09,32994,4.0,71800.8,-16.67,-26.97,-27.83,0,*67
1512842841.33,32995,4.0,71798.0,-16.67,-26.97,-27.93,0,*67
1512842842.58,32996,4.0,71802.0,-16.67,-26.97,-27.93,0,*64
1512842843.85,32997,4.0,71798.5,-16.69,-26.97,-27.93,0,*6B
1512842845.09,32998,4.0,71800.0,-16.67,-26.97,-27.93,0,*6A
1512842846.36,32999,4.0,71800.8,-16.69,-26.97,-27.93,0,*65
1512842847.6,33000,4.0,71802.5,-16.69,-27.07,-27.93,0,*65
1512842848.82,33001,4.0,71802.5,-16.67,-27.07,-27.93,0,*6A
1512842850.09,33002,4.0,71804.5,-16.69,-27.07,-27.83,0,*66
1512842851.35,33003,4.0,71804.8,-16.69,-26.93,-27.93,0,*6A
1512842852.62,33004,4.0,71806.0,-16.67,-26.81,-27.83,0,*61
1512842853.87,33005,3.94,71802.3,-16.67,-26.97,-27.93,0,*66
1512842855.08,33006,3.94,71802.3,-16.67,-27.07,-27.93,0,*6D
1512842856.32,33007,4.0,71806.3,-16.67,-26.93,-27.93,0,*60
1512842857.57,33008,4.0,71800.3,-16.67,-27.07,-27.83,0,*62
1512842858.82,33009,3.94,71800.8,-16.67,-27.07,-27.99,0,*68
1512842860.06,33010,4.0,71804.3,-16.67,-26.97,-27.93,0,*62
1512842861.31,33011,4.0,71800.5,-16.67,-27.07,-27.83,0,*6A
1512842862.55,33012,3.94,71802.3,-16.69,-27.07,-27.93,0,*66
1512842863.79,33013,4.0,71804.5,-16.69,-27.07,-27.93,0,*67
1512842865.05,33014,4.0,71806.3,-16.69,-26.93,-27.93,0,*6C
1512842866.35,33015,3.94,71798.8,-16.69,-26.97,-27.83,0,*68
1512842867.62,33016,4.0,71800.8,-16.67,-26.97,-27.83,0,*65
1512842868.89,33017,4.0,71800.3,-16.69,-26.97,-27.93,0,*6B
1512842870.18,33018,4.0,71804.8,-16.69,-26.97,-27.83,0,*65
1512842871.42,33019,3.94,71802.3,-16.67,-26.93,-27.93,0,*6F
1512842872.69,33020,4.0,71802.0,-16.67,-26.97,-27.83,0,*60
1512842873.94,33021,4.0,71800.8,-16.67,-26.97,-27.77,0,*6A
1512842875.21,33022,4.0,71800.5,-16.67,-26.97,-27.83,0,*62
1512842876.48,33023,4.0,71802.3,-16.69,-26.97,-27.93,0,*6C
1512842877.75,33024,4.0,71800.8,-16.69,-26.81,-27.93,0,*6C
1512842878.99,33025,4.0,71804.0,-16.67,-26.93,-27.93,0,*60
1512842880.28,33026,4.0,71810.0,-16.69,-26.93,-27.83,0,*6C
1512842881.57,33027,4.0,71806.0,-16.69,-26.81,-27.83,0,*6E
1512842882.86,33028,3.94,71800.3,-16.69,-26.93,-27.83,0,*62
1512842884.14,33029,3.94,71796.8,-16.67,-26.97,-27.83,0,*69
1512842885.41,33030,4.0,71802.3,-16.67,-26.97,-27.83,0,*61
1512842886.65,33031,4.0,71798.5,-16.67,-26.97,-27.93,0,*61
1512842887.92,33032,4.0,71798.5,-16.69,-26.81,-27.93,0,*6B
1512842889.16,33033,3.94,71800.0,-16.67,-26.93,-27.93,0,*67
1512842890.43,33034,4.0,71792.8,-16.67,-26.97,-27.83,0,*65
1512842891.7,33035,4.0,71796.0,-16.67,-26.81,-27.83,0,*63
1512842892.97,33036,3.94,71796.5,-16.67,-26.93,-27.83,0,*63
1512842894.22,33037,4.0,71794.0,-16.67,-26.97,-27.93,0,*67
1512842895.49,33038,4.0,71798.5,-16.67,-26.93,-27.99,0,*66
1512842896.76,33039,4.0,71796.8,-16.67,-26.97,-27.83,0,*68
1512842898.0,33040,4.0,71798.8,-16.67,-27.07,-27.83,0,*6E
1512842899.24,33041,4.0,71796.8,-16.67,-27.13,-27.83,0,*6A
1512842900.51,33042,4.0,71796.8,-16.67,-26.93,-27.83,0,*60
1512842901.78,33043,4.0,71800.0,-16.69,-26.93,-27.93,0,*6E
1512842903.04,33044,3.94,71796.3,-16.69,-27.13,-27.99,0,*6A
1512842904.28,33045,4.0,71804.5,-16.69,-27.07,-27.93,0,*64
1512842905.53,33046,4.0,71800.0,-16.67,-27.07,-27.99,0,*63
1512842906.78,33047,3.94,71794.3,-16.67,-27.07,-27.99,0,*62
1512842908.02,33048,4.0,71800.3,-16.69,-27.07,-27.93,0,*69
1512842909.26,33049,4.0,71796.8,-16.69,-27.07,-27.93,0,*68